Regional Weather Roundup
Issued by NWS

Home | Current Version | Previous Version | Text Only | Print | Product List | Glossary On
Versions: 1 2 3 4 5 6 7 8 9 10 11 12 13 14 15 16 17 18 19 20 21 22 23 24 25 26 27 28 29 30 31 32 33 34 35 36 37 38 39 40 41 42 43 44 45 46 47 48 49 50
000
ASUS43 KTOP 291008
RWRKS

WEATHER ROUNDUP FOR KANSAS
NATIONAL WEATHER SERVICE GOODLAND KS
500 AM CDT WED MAR 29 2017

NOTE:  "FAIR" INDICATES FEW OR NO CLOUDS BELOW 12,000 FEET WITH NO
SIGNIFICANT WEATHER AND/OR OBSTRUCTIONS TO VISIBILITY.

KSZ001>006-013>018-027>032-041>047-291100-
NORTHWEST KANSAS

CITY           SKY/WX    TMP DP  RH WIND       PRES   REMARKS
GOODLAND       LGT RAIN  38  38 100 N20       29.96F FOG     WCI  28
HAYS             N/A     44  44 100 N20G25    29.88F FOG
HILL CITY      LGT RAIN  43  43 100 N16G23    29.94F FOG
RUSSELL        LGT RAIN  45  45 100 N17G25    29.86R FOG
$$

KSZ061>065-074>080-084>089-291100-
SOUTHWEST KANSAS

CITY           SKY/WX    TMP DP  RH WIND       PRES   REMARKS
DODGE CITY     LGT RAIN  44  42  93 N23G31    29.81F FOG
ELKHART          N/A     40  33  76 N12         N/A  WCI  33
GARDEN CITY    CLOUDY    42  40  92 N30G36    29.84F
LIBERAL        CLOUDY    45  39  81 N20       29.81S
PRATT          RAIN      46  45  97 N15       29.79F
$$

KSZ066>073-081>083-090>101-291100-
SOUTHEAST KANSAS

CITY           SKY/WX    TMP DP  RH WIND       PRES   REMARKS
CHANUTE        RAIN      54  52  93 E7        29.77F FOG
COFFEYVILLE    CLOUDY    58  57  97 E9        29.73F
MEDICINE LODGE   N/A     50  48  93 N9        29.74F
NEWTON         CLOUDY    49  47  93 NE17G25   29.76S
PARSONS        LGT RAIN  57  56  96 E3        29.75F
WICHITA INTL   CLOUDY    51  51 100 NE20      29.73F
WICHITA JABRA  CLOUDY    50  49  96 NE15G23   29.73F
WICHITA MCCONL DRIZZLE   50  48  93 NE14G24   29.71F
WINFIELD       CLOUDY    53  51  93 NE7       29.68F
$$

KSZ007>012-019>026-033>040-048>060-102>105-291100-
NORTHEAST KANSAS

CITY           SKY/WX    TMP DP  RH WIND       PRES   REMARKS
CONCORDIA      RAIN      47  47 100 NE17G24   29.87F FOG
EMPORIA        LGT RAIN  50  50 100 NE21G28   29.78F
LAWRENCE       LGT RAIN  51  50  96 NE17      29.88F
MANHATTAN      LGT RAIN  50  49  96 NE26G37   29.82F
MARYSVILLE     RAIN      46  46 100 E16G26    29.90F
OLATHE IND     LGT RAIN  50  49  96 NE13      29.89F
OLATHE EXE     LGT RAIN  49  49 100 NE9       29.89F FOG
SALINA         CLOUDY    52  48  86 NE17G29   29.79F
TOPEKA BILLARD RAIN      51  50  96 E21G29    29.85F
TOPEKA FORBES  LGT RAIN  52  50  93 E17G26    29.85F FOG
$$




USA.gov is the U.S. government's official web portal to all federal, state and local government web resources and services.